Ketchikan, AK

4:40 AM AKDT on September 25, 2017 (GMT -0800)
Ketchikan International

Weather History for PAKT - March, 2013

Change the Weather History Date:

Thursday, March 21, 2013

  Actual Average Record
Temperature  
Mean Temperature 34 °F -  
Max Temperature 41 °F 44 °F 61 °F (1998)
Min Temperature 30 °F 33 °F 19 °F (2001)
Degree Days  
Heating Degree Days 30    
Moisture  
Dew Point 31 °F    
Average Humidity 92    
Maximum Humidity 100    
Minimum Humidity 57    
Precipitation  
Precipitation 0.29 in - - ()
Sea Level Pressure  
Sea Level Pressure 30.02 in    
Wind  
Wind Speed 3 mph (SSE)    
Max Wind Speed 12 mph    
Max Gust Speed -    
Visibility 7 miles    
Events Rain , Snow    
Averages and records for this station are not official NWS values.
T = Trace of Precipitation, MM = Missing Value Source: NWS Daily Summary

Daily Weather History Graph

Daily Weather History Graph

Search for Another Location

Airport or City:

Trip Planner

Search our weather history database for the weather conditions in past years. The results will help you decide how hot, cold, wet, or windy it might be!

Date:

Astronomy

Mar. 21, 2013 Rise Set
Actual Time 6:45 AM AKDT 7:03 PM AKDT
Civil Twilight 6:08 AM AKDT 7:40 PM AKDT
Nautical Twilight 5:25 AM AKDT 8:23 PM AKDT
Astronomical Twilight 4:39 AM AKDT 9:10 PM AKDT
Moon 12:51 PM AKDT (3/21) 4:02 AM AKDT (3/21)
Length of Visible Light 13h 31m
Length of Day
12h 18m
Waxing Gibbous, 70% of the Moon is Illuminated
Mar 21
Waxing Gibbous
Mar 27
Full
Apr 2
Last Quarter
Apr 10
New
Apr 18
First Quarter

Hourly Weather History & Observations

Time (AKDT) Temp. Windchill Dew Point Humidity Pressure Visibility Wind Dir Wind Speed Gust Speed Precip Events Conditions
12:53 AM 30.0 °F - 27.0 °F 88% 29.80 in 10.0 mi Calm Calm - N/A   Mostly Cloudy
1:53 AM 30.9 °F - 28.9 °F 92% 29.82 in 10.0 mi Calm Calm - N/A   Overcast
2:53 AM 30.9 °F 27.5 °F 28.9 °F 92% 29.84 in 10.0 mi South 3.5 mph - N/A   Overcast
3:24 AM 30.2 °F - 30.2 °F 100% 29.84 in 2.5 mi Calm Calm - 0.00 in Snow Light Snow
3:34 AM 30.2 °F - 30.2 °F 100% 29.84 in 1.8 mi Calm Calm - 0.00 in Snow Light Snow
3:41 AM 30.2 °F - 30.2 °F 100% 29.84 in 3.0 mi Calm Calm - 0.00 in Snow Light Snow
3:53 AM 30.9 °F - 30.9 °F 100% 29.86 in 2.0 mi Calm Calm - 0.00 in Snow Light Snow
4:05 AM 30.2 °F - 30.2 °F 100% 29.85 in 4.0 mi Calm Calm - 0.00 in Snow Light Snow
4:36 AM 30.2 °F 26.7 °F 30.2 °F 100% 29.86 in 10.0 mi South 3.5 mph - 0.00 in   Overcast
4:53 AM 30.0 °F 25.2 °F 30.0 °F 100% 29.87 in 10.0 mi South 4.6 mph - 0.00 in   Overcast
5:53 AM 30.0 °F 26.5 °F 28.9 °F 96% 29.88 in 10.0 mi South 3.5 mph - 0.00 in   Mostly Cloudy
6:03 AM 30.2 °F 26.7 °F 30.2 °F 100% 29.88 in 10.0 mi South 3.5 mph - N/A   Mostly Cloudy
6:53 AM 30.0 °F 26.5 °F 30.0 °F 100% 29.90 in 10.0 mi SE 3.5 mph - N/A   Overcast
7:16 AM 30.2 °F 26.7 °F 30.2 °F 100% 29.90 in 3.0 mi South 3.5 mph - 0.00 in Snow Light Snow
7:23 AM 30.2 °F 26.7 °F 30.2 °F 100% 29.90 in 3.0 mi South 3.5 mph - 0.00 in Snow Light Snow
7:53 AM 30.9 °F - 30.9 °F 100% 29.92 in 10.0 mi Calm Calm - 0.01 in   Mostly Cloudy
8:53 AM 33.1 °F 27.7 °F 30.9 °F 92% 29.94 in 10.0 mi SE 5.8 mph - N/A   Mostly Cloudy
9:53 AM 34.0 °F 28.8 °F 30.9 °F 89% 29.96 in 9.0 mi SE 5.8 mph - 0.00 in Snow Light Snow
10:53 AM 36.0 °F 31.1 °F 30.9 °F 82% 29.99 in 10.0 mi ESE 5.8 mph - 0.00 in   Mostly Cloudy
11:53 AM 39.0 °F 36.8 °F 28.0 °F 65% 30.01 in 10.0 mi ENE 3.5 mph - N/A   Mostly Cloudy
12:53 PM 39.0 °F 34.8 °F 25.0 °F 57% 30.02 in 10.0 mi ESE 5.8 mph - N/A   Scattered Clouds
1:53 PM 39.9 °F 32.9 °F 27.0 °F 60% 30.04 in 10.0 mi SE 11.5 mph - 0.00 in Rain Light Rain
2:53 PM 39.0 °F 32.3 °F 25.0 °F 57% 30.05 in 10.0 mi SE 10.4 mph - 0.00 in   Overcast
3:35 PM 37.4 °F 30.8 °F 28.4 °F 70% 30.06 in 5.0 mi SSE 9.2 mph - 0.00 in Snow Light Snow
3:53 PM 35.1 °F 31.0 °F 30.9 °F 85% 30.08 in 3.0 mi SSE 4.6 mph - 0.00 in Snow Light Snow
4:53 PM 36.0 °F 31.1 °F 33.1 °F 89% 30.09 in 10.0 mi SSE 5.8 mph - 0.01 in   Mostly Cloudy
5:00 PM 35.6 °F 31.7 °F 33.8 °F 93% 30.08 in 10.0 mi SSE 4.6 mph - N/A   Mostly Cloudy
5:53 PM 36.0 °F 33.3 °F 33.1 °F 89% 30.09 in 10.0 mi South 3.5 mph - N/A   Mostly Cloudy
6:53 PM 36.0 °F 33.3 °F 34.0 °F 93% 30.10 in 10.0 mi SE 3.5 mph - N/A   Overcast
7:53 PM 36.0 °F 32.1 °F 32.0 °F 86% 30.13 in 10.0 mi SE 4.6 mph - 0.00 in   Overcast
8:07 PM 33.8 °F 30.8 °F 33.8 °F 100% 30.13 in 2.0 mi East 3.5 mph - 0.02 in Snow Light Snow
8:46 PM 32.0 °F 28.7 °F 32.0 °F 100% 30.15 in 1.0 mi NW 3.5 mph - 0.11 in Snow Light Snow
8:53 PM 33.1 °F 30.0 °F 33.1 °F 100% 30.16 in 1.2 mi NE 3.5 mph - 0.12 in Snow Light Snow
9:10 PM 33.8 °F - 33.8 °F 100% 30.16 in 1.8 mi Calm Calm - 0.01 in Snow Light Snow
9:30 PM 33.8 °F 27.0 °F 33.8 °F 100% 30.17 in 0.8 mi NW 8.1 mph - 0.04 in Snow Light Snow
9:53 PM 33.1 °F 26.1 °F 33.1 °F 100% 30.19 in 0.8 mi WNW 8.1 mph - 0.11 in Snow Light Snow
10:04 PM 33.8 °F 27.0 °F 33.8 °F 100% 30.19 in 1.0 mi WNW 8.1 mph - 0.02 in Snow Light Snow
10:22 PM 33.8 °F 27.7 °F 33.8 °F 100% 30.20 in 3.0 mi WNW 6.9 mph - 0.04 in Snow Light Snow
10:29 PM 33.8 °F 28.6 °F 33.8 °F 100% 30.20 in 9.0 mi WNW 5.8 mph - 0.04 in Snow Light Snow
10:41 PM 33.8 °F 27.7 °F 33.8 °F 100% 30.20 in 10.0 mi WNW 6.9 mph - 0.04 in   Overcast
10:53 PM 33.1 °F 25.5 °F 33.1 °F 100% 30.21 in 10.0 mi WNW 9.2 mph - 0.04 in   Overcast
11:53 PM 33.1 °F 25.5 °F 32.0 °F 96% 30.23 in 10.0 mi WNW 9.2 mph - N/A   Scattered Clouds